GFSNGP_prec_cthk_093.txt.gz
RH
79 73 67 71 72 69 72 65 55 52 42 45 53 51 52 52 53 62 72 75 82 82 79 81 82 81 82 83 79 78 63 59 52 49 43 47 52 56 61 68 72 73 70 72
59 52 53 55 49 49 47 45 43 44 44 58 52 51 46 51 58 63 74 77 84 88 84 85 85 86 84 84 80 72 65 59 54 52 47 49 52 56 58 61 62 65 66 66
60 44 36 40 43 44 44 49 54 58 58 49 46 49 50 55 59 67 71 77 87 93 90 91 90 89 90 86 81 75 70 65 58 55 52 51 54 56 59 61 61 60 62 60
63 53 68 73 58 56 60 57 52 51 52 50 51 54 55 56 63 69 77 83 89 96 94 95 94 95 94 91 89 85 81 75 65 60 57 58 61 62 62 63 64 65 64 63
71 62 54 63 57 56 54 69 67 62 57 54 59 58 60 63 63 74 80 88 96 97 96 95 98 99 97 94 95 89 85 80 72 69 62 60 61 64 68 70 75 76 79 80
59 57 63 82 53 58 60 85 76 68 65 65 66 68 72 73 71 76 85 92 96 96 97 98 98 97 97 95 94 93 91 89 83 79 76 73 72 72 74 79 83 85 87 87
51 55 62 59 60 53 80 91 82 76 75 74 73 76 79 81 81 82 88 93 96 96 98 94 97 95 95 98 96 94 97 96 96 94 92 91 87 84 83 91 97 97 97 97
59 61 73 66 60 65 77 82 82 83 80 79 81 83 83 87 87 90 91 96 97 97 96 98 97 95 94 94 93 99 95 96 97 99 94 97 98 97 97 97 95 98 97 97
72 75 75 75 78 77 77 86 88 92 88 88 88 88 89 91 97 96 95 97 97 97 97 97 98 96 97 96 97 94 97 98 95 95 98 98 98 98 94 98 95 99 98 98
71 77 78 79 81 82 79 87 96 97 95 94 95 96 96 97 97 96 97 97 97 97 97 96 97 97 96 95 98 96 97 98 96 97 99 98 98 98 97 97 96 96 94 92
80 82 81 82 85 87 83 94 97 97 97 97 97 98 98 97 97 96 97 97 96 97 97 97 98 97 97 96 98 96 97 96 97 97 97 97 95 94 93 94 90 87 84 79
82 87 89 90 90 89 89 97 97 98 98 97 97 97 97 98 96 96 97 96 96 96 96 96 96 96 97 96 96 97 96 95 96 97 98 96 96 95 92 88 83 77 74 74
91 94 95 96 95 96 97 97 97 97 97 97 97 96 95 95 95 96 96 95 94 92 91 89 88 87 87 86 87 89 90 90 95 96 96 95 94 93 93 94 93 92 89 84
96 97 96 97 97 97 97 97 97 97 97 96 96 95 93 91 89 87 86 84 84 85 85 86 86 85 84 83 82 81 80 78 76 76 76 76 76 77 77 78 78 77 78 76
98 97 97 96 96 95 94 92 92 93 94 92 89 86 85 84 82 79 77 75 73 70 69 70 71 72 73 76 75 75 75 76 76 76 74 73 74 76 75 75 74 72 71 69
96 90 88 85 80 77 76 77 77 77 77 77 78 78 76 74 71 68 64 61 58 54 52 50 49 48 49 51 56 55 53 54 55 56 57 58 59 60 60 59 58 53 48 48
83 79 77 76 72 70 69 68 68 68 68 67 65 63 62 58 51 46 42 39 37 34 33 31 30 30 29 29 38 37 37 37 37 37 37 37 37 37 37 37 36 34 26 26
77 73 70 68 68 67 66 64 63 62 59 56 51 44 39 36 35 34 33 31 30 27 25 24 23 23 22 22 29 32 32 33 33 33 33 34 34 34 34 34 33 32 32 29
72 69 67 66 63 61 59 58 55 50 44 39 36 32 29 27 24 23 23 23 25 24 21 21 21 21 21 21 27 30 30 30 30 30 31 31 31 31 30 30 30 29 30 30
69 67 64 61 59 57 52 45 38 34 30 27 26 25 25 24 24 24 27 27 23 22 21 21 23 25 21 21 24 30 30 30 30 30 29 31 31 30 30 29 30 30 30 30
68 66 62 57 47 41 38 33 30 29 29 29 28 26 26 25 24 23 30 33 27 20 24 26 19 17 18 20 25 26 26 26 27 28 28 29 29 29 29 28 28 28 28 28
65 59 48 43 39 35 34 35 35 33 30 29 28 26 28 30 27 26 24 22 26 19 25 24 18 15 15 22 25 25 25 26 26 27 28 27 28 29 28 27 27 27 27 27
49 45 42 38 38 39 39 37 34 31 29 27 26 25 28 29 28 28 33 25 24 20 24 23 17 16 17 23 24 24 24 24 25 25 25 26 26 26 27 27 27 27 27 27
45 42 42 43 43 43 41 35 33 31 29 28 28 27 25 28 32 26 24 24 22 19 24 23 21 20 20 26 26 26 26 27 27 27 27 27 28 28 28 28 29 29 29 29
45 45 44 44 45 46 40 37 35 37 36 38 35 30 27 26 26 26 25 26 26 26 27 28 28 28 29 29 29 29 29 30 30 29 30 30 30 30 30 30 30 30 30 31
48 49 48 43 44 40 38 36 42 43 40 40 38 37 32 28 27 28 30 30 30 31 32 33 34 34 34 34 34 33 32 32 32 32 31 31 31 31 32 32 32 32 33 33
48 48 45 43 41 40 38 37 36 39 33 30 30 36 36 33 33 32 34 37 42 43 42 43 43 42 40 40 40 39 39 38 37 36 36 35 35 34 35 35 35 35 36 36

GFSNGP_prec_cthk_099.txt.gz
RH
80 75 82 82 88 80 91 97 98 97 87 83 81 77 69 59 56 48 45 52 60 68 74 79 76 78 78 79 80 81 82 83 84 81 81 69 65 63 54 53 60 67 71 82
97 92 94 98 95 94 95 95 96 88 82 80 77 69 65 61 52 49 51 53 57 62 69 80 85 85 86 81 84 86 81 87 88 86 85 76 74 69 62 56 62 68 70 71
98 92 92 97 94 90 89 89 86 88 83 75 69 65 61 58 58 58 57 59 61 64 69 74 85 88 85 86 87 89 89 87 92 90 86 81 82 75 67 60 61 68 69 69
80 74 91 95 89 82 81 82 78 77 74 69 69 71 67 64 66 62 60 62 66 67 69 71 73 84 89 88 89 89 92 92 92 92 92 85 87 79 72 69 68 67 67 67
84 95 89 76 71 71 74 75 74 70 67 70 71 68 67 69 70 67 65 67 69 72 70 71 73 75 85 90 89 93 94 96 95 93 96 89 89 85 75 74 74 71 70 71
77 89 92 74 64 58 63 72 72 72 69 65 65 68 72 72 75 73 74 73 74 73 72 73 76 79 82 92 94 90 92 93 95 95 92 94 89 85 84 81 78 76 73 71
88 85 83 80 70 61 66 80 80 78 76 72 71 76 81 80 78 79 80 81 79 76 75 78 81 84 87 88 97 96 95 95 98 96 96 94 86 89 85 85 84 82 79 77
90 85 78 66 56 61 69 70 72 74 77 81 81 81 82 82 84 86 87 86 85 86 88 88 88 94 93 90 94 97 98 98 96 96 98 97 95 99 89 90 88 90 90 88
85 85 77 71 68 68 67 69 73 77 84 86 93 93 91 91 91 89 89 89 89 91 91 93 93 96 95 95 96 96 97 97 97 96 98 98 99 98 95 89 92 94 93 94
69 70 70 69 69 71 72 74 80 85 87 95 96 96 97 96 96 96 97 98 98 97 96 94 93 96 96 96 96 96 97 96 97 96 98 97 97 98 98 98 98 97 98 98
69 70 73 76 77 79 81 83 87 88 93 97 96 96 96 96 96 96 97 97 96 96 95 95 95 95 96 96 96 96 96 96 96 97 97 96 97 97 97 98 97 97 97 97
73 76 78 82 86 88 90 90 93 93 97 97 97 97 97 97 96 94 92 88 87 87 87 87 87 89 91 93 94 95 96 96 96 95 95 96 97 96 96 97 97 96 97 97
76 80 82 87 90 93 95 95 97 97 97 97 97 97 96 92 90 88 84 82 79 78 79 78 77 76 76 79 81 83 85 87 88 89 92 96 97 96 96 97 96 96 97 96
83 88 92 95 95 96 97 96 97 97 97 97 95 90 86 82 79 75 71 66 60 56 54 54 54 53 53 53 56 58 61 66 71 76 76 78 79 80 83 87 91 93 95 96
92 95 94 92 94 94 95 94 92 88 84 82 76 71 65 59 52 45 40 36 32 30 28 27 29 31 33 34 36 34 35 37 38 42 46 51 54 56 58 62 64 66 68 71
96 93 88 86 81 79 76 75 72 70 67 64 59 53 45 37 33 30 27 25 23 22 20 19 20 23 25 26 27 28 28 28 28 29 29 30 32 34 35 33 33 37 39 39
86 86 83 78 76 71 69 66 63 59 55 48 39 31 27 25 23 22 22 21 20 19 18 18 17 19 21 23 24 27 26 26 25 25 27 28 28 28 28 27 26 24 27 30
83 78 75 70 66 63 61 57 52 42 32 27 25 23 22 21 19 18 19 19 16 16 15 14 14 14 16 18 20 22 22 23 24 25 26 26 27 27 28 28 27 27 26 26
76 72 68 64 60 56 47 37 31 27 25 25 23 22 19 18 17 19 21 22 19 15 14 14 13 13 13 16 15 18 20 20 21 22 24 24 24 25 26 26 26 26 27 27
68 65 61 57 46 38 33 29 27 26 25 23 21 21 21 20 20 22 24 24 22 18 15 15 14 13 13 16 16 18 19 20 21 22 23 23 24 24 24 25 25 26 26 26
66 61 53 41 37 33 30 28 28 26 24 23 23 23 24 25 25 27 26 26 23 21 18 19 16 14 14 15 16 19 20 22 23 23 23 25 26 26 26 25 26 26 26 25
59 47 41 36 33 31 31 29 26 25 26 26 25 25 25 27 29 29 29 27 25 22 19 19 19 17 17 18 21 23 24 24 24 25 25 26 27 28 27 27 27 27 26 26
46 41 36 34 33 33 31 29 28 29 30 30 31 32 30 33 34 33 31 31 29 26 23 23 23 22 20 22 25 27 27 28 29 29 30 30 28 29 28 28 29 28 28 28
39 37 35 36 35 32 31 32 32 37 38 37 37 37 37 37 37 36 34 32 29 28 27 27 27 27 27 28 30 31 32 33 34 35 35 34 35 34 33 32 31 30 30 29
39 37 37 35 35 36 36 37 39 41 43 43 43 43 43 39 37 35 34 32 31 31 31 30 30 31 32 33 33 34 35 36 36 37 38 39 40 40 40 40 39 38 36 35
39 38 37 37 37 39 42 41 42 43 45 47 45 43 43 43 40 39 37 36 36 36 36 36 36 37 38 38 39 40 38 38 38 39 40 41 41 41 42 41 41 41 41 40
41 40 38 36 37 40 40 40 40 41 44 44 42 42 41 42 42 42 41 40 39 38 37 38 39 40 41 41 41 42 42 41 41 40 40 40 40 39 39 39 39 39 39 40

GFSNGP_prec_cthk_105.txt.gz
RH
91 88 91 97 98 95 98 97 93 97 96 96 92 86 78 83 77 81 70 68 66 67 75 76 80 83 82 86 89 89 87 81 90 90 93 93 87 75 77 81 78 76 73 63
93 90 97 97 95 88 96 98 97 95 94 91 87 89 77 74 76 73 66 65 65 62 68 72 77 80 78 81 83 88 92 96 98 95 85 82 84 85 86 82 81 78 73 68
96 88 86 86 96 96 95 94 90 88 89 85 82 79 80 78 76 72 71 67 62 59 64 64 70 78 77 80 82 81 97 97 99 85 83 83 88 93 91 87 79 78 77 72
98 97 91 96 96 94 94 93 87 83 82 81 81 80 80 80 78 77 75 71 67 64 64 67 66 69 75 77 87 83 87 85 83 86 87 86 89 91 90 92 89 84 83 79
97 93 95 94 88 91 90 89 89 85 82 82 83 83 82 84 83 80 79 78 74 69 65 64 67 66 67 72 77 84 86 88 87 91 86 87 90 91 90 90 94 89 90 90
94 90 94 90 81 76 85 83 79 77 76 75 77 78 82 82 83 82 80 78 76 74 72 68 67 69 67 68 70 74 79 84 85 88 90 88 89 91 92 92 93 96 95 93
90 88 91 84 78 77 80 80 75 75 74 74 75 79 81 83 84 84 83 79 78 76 74 73 70 69 67 67 65 70 74 79 83 87 90 92 93 93 98 96 98 98 97 94
80 80 80 78 78 71 76 78 77 77 76 77 78 79 81 83 84 85 86 85 83 81 79 78 75 74 73 70 72 72 74 77 79 84 89 92 91 92 96 95 98 97 95 95
85 84 84 75 74 75 75 75 77 78 79 80 80 81 82 83 86 86 84 80 80 78 77 76 73 74 74 74 75 77 78 79 83 85 86 87 96 97 97 98 96 97 98 94
82 72 70 70 71 73 73 74 78 78 81 83 86 87 92 92 89 86 81 78 77 75 73 73 73 70 69 71 74 76 79 84 87 88 90 90 89 91 93 95 97 97 97 97
73 67 68 70 72 75 77 78 79 82 83 85 87 92 92 89 85 81 79 75 72 69 66 64 62 59 58 58 60 61 62 66 71 79 84 87 90 93 95 96 96 96 96 97
66 64 69 72 75 76 77 78 80 84 88 86 89 91 88 81 76 72 68 64 55 48 42 38 35 33 32 32 33 34 35 37 40 44 49 60 72 83 89 94 95 96 96 97
69 70 72 75 77 76 76 79 84 86 90 92 91 85 80 72 61 51 43 37 33 31 29 26 24 23 22 21 21 21 22 23 24 26 29 31 35 41 47 60 77 90 95 97
72 72 76 76 77 78 81 85 89 89 91 89 85 73 61 50 39 32 27 22 19 18 19 18 17 16 17 16 15 14 14 14 15 14 15 16 18 21 25 29 32 39 49 63
75 76 74 79 81 85 88 88 88 83 79 72 60 45 34 28 23 19 18 17 16 15 14 14 14 14 15 15 14 13 13 13 14 14 14 14 13 13 13 15 18 20 21 22
77 76 78 80 82 84 83 77 70 66 58 46 34 28 23 20 20 18 16 16 15 14 14 13 13 14 15 15 15 14 15 16 16 16 16 15 16 15 15 14 14 14 15 16
82 78 76 80 78 73 69 63 57 48 37 28 24 23 21 19 18 18 17 16 15 14 14 14 14 15 16 17 16 16 16 17 18 19 18 18 17 18 19 18 18 18 17 16
85 84 83 77 70 64 57 50 40 30 26 24 23 21 19 18 19 19 19 20 18 17 17 17 17 17 17 17 17 17 17 18 19 19 20 20 20 20 20 21 20 20 21 20
87 85 80 70 60 53 42 31 28 26 25 24 23 22 21 21 22 23 24 23 23 22 21 20 20 19 19 19 19 18 19 21 23 23 23 24 24 23 23 22 22 23 23 22
80 74 65 58 49 36 33 29 27 26 26 25 24 24 25 26 26 25 27 27 27 24 24 22 22 22 21 22 22 22 22 23 26 27 27 27 26 26 26 25 25 24 24 24
71 65 58 41 34 31 29 28 29 27 26 26 27 28 28 27 28 29 30 31 31 31 29 28 27 27 26 26 27 27 27 27 28 28 28 29 29 29 29 28 28 28 27 27
64 55 41 33 30 30 29 29 27 27 27 28 29 30 29 28 29 30 31 32 34 34 33 32 32 32 32 32 32 32 31 30 30 31 31 30 29 30 31 31 31 32 32 32
59 44 36 32 30 30 29 27 26 27 30 30 32 34 34 33 33 34 33 34 36 38 38 37 37 37 37 36 34 33 33 33 33 33 31 30 30 31 33 34 36 37 37 37
53 41 37 32 32 30 29 26 26 31 31 32 35 36 36 35 36 37 38 40 43 44 43 42 41 41 40 38 37 37 36 35 34 34 35 36 37 38 38 37 37 38 39 40
53 43 37 34 34 31 29 27 30 32 33 36 37 37 37 37 38 41 43 45 48 49 47 46 44 43 41 40 39 39 39 40 41 42 42 42 43 43 43 42 41 40 41 41
54 44 38 37 35 33 32 30 31 33 35 36 37 37 38 38 39 41 45 48 50 50 46 44 42 42 40 40 41 42 45 48 50 52 53 54 54 55 56 56 55 53 51 49
57 45 42 39 37 35 33 33 33 35 34 35 35 34 35 37 38 37 44 49 49 46 44 41 39 37 37 39 42 46 49 52 56 58 60 63 64 66 68 69 69 69 69 67

GFSNGP_prec_cthk_111.txt.gz
RH
74 75 80 89 89 92 93 89 92 94 95 96 96 96 90 90 92 91 88 88 88 87 87 87 87 89 93 92 91 96 88 94 93 96 92 92 89 80 72 70 76 85 92 94
81 72 80 88 94 96 96 96 95 96 95 94 91 92 94 89 95 88 93 81 80 79 81 84 87 85 90 88 92 95 98 92 93 98 98 97 95 94 90 92 97 97 96 94
82 88 87 95 96 96 96 96 96 94 93 90 88 89 89 90 89 91 88 80 82 73 75 81 78 81 86 90 94 92 93 99 95 95 99 97 97 99 99 98 96 92 98 97
91 95 95 96 96 93 93 94 93 87 85 85 87 89 87 89 87 85 85 82 81 79 76 76 75 76 79 85 91 98 93 97 98 96 99 97 98 98 96 97 98 97 97 87
93 93 95 96 95 94 94 92 87 85 84 84 87 87 85 88 87 85 86 85 83 81 79 75 73 77 78 79 82 88 93 98 98 98 98 97 97 98 98 98 98 98 98 96
89 92 91 90 91 90 94 91 89 85 82 83 84 80 83 85 86 86 84 84 83 81 79 74 74 73 71 73 73 76 77 84 88 92 94 97 98 98 98 99 97 98 94 96
94 90 87 81 82 94 95 86 82 80 80 80 79 79 82 83 84 82 80 79 76 72 70 69 68 68 67 69 68 70 72 74 72 74 78 78 87 95 94 97 98 97 95 93
94 90 86 85 85 91 82 79 78 77 78 79 80 81 81 81 78 75 72 69 65 61 57 54 51 50 51 52 55 56 59 62 65 67 70 72 72 74 77 82 86 91 89 96
95 88 87 84 86 81 76 75 76 76 77 79 80 81 81 79 74 71 65 59 53 46 41 37 35 33 31 32 32 33 33 35 38 42 45 49 55 63 71 73 74 79 81 84
90 89 83 82 75 74 73 75 75 75 77 79 81 81 78 76 73 65 57 49 42 36 32 29 27 25 24 24 23 21 21 21 23 24 26 28 31 35 38 43 49 57 67 78
86 83 81 75 73 72 73 76 75 76 78 80 81 79 79 75 66 55 47 39 33 29 26 24 21 18 17 15 13 12 12 12 12 12 13 15 18 21 24 28 30 32 37 42
82 70 70 70 72 73 74 77 77 78 80 81 79 75 71 60 50 43 36 32 28 24 19 16 14 13 11 11 10 9 9 9 10 10 10 10 11 12 12 12 13 15 17 20
80 71 70 74 76 75 75 76 78 78 80 79 76 69 56 45 37 31 24 20 17 16 14 13 13 12 12 12 11 11 11 11 11 10 10 10 10 10 10 11 10 10 9 9
79 74 75 77 76 75 77 80 80 80 80 76 70 55 45 35 28 22 19 17 15 14 14 14 14 15 15 14 14 14 13 13 13 13 12 12 12 13 12 11 11 11 10 10
79 74 73 74 76 79 80 82 83 80 75 65 50 40 32 28 21 19 17 15 14 15 16 16 16 16 17 17 17 17 16 16 16 16 16 16 16 15 15 14 14 14 13 13
78 74 72 76 78 80 83 83 77 70 57 44 36 29 24 21 20 19 17 17 18 18 18 18 18 19 20 21 20 19 19 19 18 19 19 19 20 20 19 19 18 18 17 16
83 80 78 79 80 82 80 73 67 52 36 30 25 23 22 22 21 21 21 20 20 20 19 20 20 21 22 22 22 21 20 20 20 21 22 23 24 24 24 24 24 23 22 21
84 80 76 76 74 72 72 65 49 35 29 26 23 23 23 23 23 23 22 21 21 21 21 22 23 24 23 23 23 22 22 22 22 23 23 23 25 25 25 26 26 27 26 25
77 75 72 70 69 69 64 47 36 30 26 24 24 24 24 25 24 24 24 24 25 24 24 25 26 26 25 25 25 24 25 25 24 24 24 24 24 24 25 28 27 26 25 25
83 79 74 69 70 65 45 35 30 26 25 25 25 26 26 26 26 27 27 27 26 26 27 28 28 28 29 29 28 26 26 27 27 26 25 25 25 24 23 24 24 24 25 25
89 83 79 75 66 45 39 31 28 26 25 25 27 27 28 28 28 29 29 30 30 30 29 30 30 31 32 32 30 29 30 31 30 29 28 26 25 24 24 25 27 29 30 31
91 86 79 71 48 38 32 29 27 25 25 26 27 29 30 31 32 31 31 31 31 31 31 32 33 35 36 34 34 35 36 36 35 32 31 29 28 30 32 35 36 36 36 37
85 80 69 45 38 34 29 28 26 25 24 26 30 31 32 34 33 31 31 29 30 32 33 35 38 40 39 38 38 38 39 37 35 34 33 35 39 41 42 43 44 45 45 45
78 71 53 40 35 31 30 27 25 25 27 29 31 31 32 32 31 30 29 30 31 33 36 39 41 41 39 39 39 39 35 36 34 35 39 42 45 49 51 52 53 55 56 56
76 68 50 39 36 35 32 30 28 29 31 31 32 32 33 32 31 30 29 28 31 34 39 42 42 41 39 40 39 37 35 34 37 41 45 48 50 53 56 58 58 60 62 64
78 72 62 49 41 41 39 34 34 34 33 33 32 31 32 32 32 32 30 30 34 39 43 44 42 40 41 39 37 36 35 38 41 45 49 53 56 58 60 64 67 67 69 71
77 76 72 63 55 50 46 44 44 41 38 34 31 31 32 33 33 31 31 35 40 43 44 42 41 41 40 39 37 37 40 43 46 49 52 54 56 59 63 65 68 73 74 77

GFSNGP_prec_cthk_114.txt.gz
RH
60 63 71 80 85 83 87 87 94 95 95 95 96 96 96 95 95 96 95 96 94 93 95 94 93 95 99 99 99 97 99 97 97 96 93 88 86 81 82 83 87 89 88 81
83 74 73 83 84 88 95 92 96 96 95 96 94 95 95 96 96 94 96 95 91 94 84 86 90 92 93 97 97 99 98 99 96 96 93 91 88 88 87 91 91 91 89 82
85 73 82 89 92 96 95 94 95 94 94 95 92 92 93 91 93 95 90 89 86 78 80 83 82 82 84 90 96 97 95 98 99 98 98 98 98 97 94 95 94 92 90 90
83 87 89 92 96 93 92 95 95 94 92 90 90 92 90 90 91 90 89 88 84 81 79 79 79 79 83 84 91 97 98 97 98 98 98 99 97 98 98 98 98 97 96 95
87 84 88 93 95 93 95 95 90 86 85 86 88 88 88 89 90 90 88 84 82 80 75 73 74 78 79 77 80 80 85 92 95 97 97 98 97 98 98 98 98 97 98 98
83 82 83 86 88 90 89 92 87 87 84 84 86 84 87 88 87 84 80 75 71 68 66 62 63 62 62 64 68 71 75 77 79 81 87 89 96 98 98 98 98 98 98 98
86 89 80 84 88 90 95 94 87 82 83 85 85 84 86 85 82 76 69 61 54 48 43 41 39 38 40 42 47 49 50 55 61 65 73 77 78 80 87 89 92 95 97 98
88 87 85 86 84 92 94 87 83 82 82 82 82 83 82 79 73 63 55 47 39 34 31 30 28 27 27 28 30 28 29 30 32 35 39 48 53 56 62 66 71 76 80 84
89 88 87 85 83 93 89 80 80 80 80 80 80 79 75 72 66 54 43 36 32 29 26 23 22 21 20 20 20 18 18 18 18 20 21 22 23 24 26 31 36 43 48 52
91 89 90 90 88 89 79 79 79 82 82 82 79 76 73 67 59 47 39 34 30 27 25 22 20 18 17 15 14 12 12 12 11 10 11 11 13 14 15 17 19 22 26 28
93 92 89 91 83 78 78 78 80 82 84 82 78 74 69 61 52 44 37 33 28 26 24 20 17 14 12 11 10 10 10 9 10 10 10 14 11 9 10 9 9 11 13 18
87 84 86 77 76 75 77 78 80 81 81 78 72 67 58 50 43 39 36 33 30 27 22 20 16 13 17 14 13 13 17 17 12 14 14 13 14 18 10 10 9 9 9 8
85 79 79 75 75 78 79 80 79 80 79 73 67 58 47 40 37 31 28 22 16 15 14 14 14 13 14 14 14 14 14 17 19 18 19 16 15 15 16 16 12 11 11 10
86 82 76 76 79 81 80 80 80 80 77 71 60 48 41 37 31 27 22 18 15 15 15 15 16 15 15 16 17 17 19 18 24 21 21 23 23 24 23 20 19 16 13 12
86 84 77 79 82 81 81 81 82 81 75 64 50 40 35 29 27 24 19 17 16 16 16 17 16 16 18 18 18 18 18 19 27 27 27 27 26 26 25 25 25 24 19 15
90 89 82 81 82 81 82 82 82 76 65 49 38 33 29 24 21 19 20 18 17 16 17 17 17 18 18 18 19 22 26 19 21 26 27 27 27 27 26 26 26 26 25 21
88 87 83 83 81 82 84 84 77 64 49 38 30 26 23 22 22 22 20 18 18 18 19 20 20 20 20 21 22 26 31 31 25 28 28 27 27 27 27 27 26 26 25 22
87 83 84 82 81 84 87 83 69 52 35 26 23 22 23 23 23 21 21 21 21 21 21 21 21 22 23 23 24 28 29 31 30 29 28 28 28 28 30 32 34 34 31 29
91 88 85 85 85 84 83 76 56 36 29 25 23 23 24 24 24 24 24 25 24 24 23 23 23 25 26 26 26 31 34 33 31 30 30 30 30 30 30 29 31 32 31 31
89 86 81 79 76 73 73 58 39 32 27 25 24 25 26 26 26 26 27 28 27 26 25 25 26 26 26 28 29 35 35 34 33 33 33 33 32 33 34 35 31 33 35 35
84 79 75 74 73 72 60 42 34 28 26 25 27 27 27 27 28 29 30 36 29 27 27 27 28 31 33 33 35 37 37 37 38 39 38 39 39 40 39 39 39 40 42 43
92 85 80 76 72 63 42 37 31 28 26 26 26 27 28 30 30 30 31 33 32 30 30 34 35 34 35 36 39 39 39 39 39 40 43 42 42 41 41 43 45 46 48 49
94 90 86 82 71 47 38 34 29 28 25 25 26 27 28 33 34 34 37 33 32 34 35 37 36 36 38 40 42 41 39 39 40 40 41 42 41 43 46 49 50 51 52 54
94 88 84 77 54 39 33 30 28 26 25 26 28 29 30 33 34 33 35 32 34 35 37 37 37 40 41 44 42 41 41 42 41 42 41 42 45 48 49 51 53 55 57 58
86 83 75 57 41 34 33 32 28 28 28 30 32 33 33 34 34 36 31 32 32 33 38 38 41 43 46 44 42 42 43 41 40 37 39 42 45 47 50 53 55 58 62 64
87 83 79 62 46 40 40 40 40 37 36 39 41 40 38 37 34 33 33 31 32 35 40 42 45 46 42 42 43 42 39 37 35 35 38 40 42 45 48 51 55 58 61 64
84 83 81 75 67 59 52 47 48 47 46 49 48 43 42 40 37 35 33 34 35 38 43 47 47 40 39 40 38 35 35 33 34 36 37 39 41 44 47 51 55 58 62 66